This is the latest recevied weather packets stored in our database for station/object BG5HLN-13. If no packets are shown the sender has not sent any weather packets the latest 10 day(s).
| Time | Temp. | Humidity | Pressure | Rain* | Wind** | Luminosity | Snow |
|---|---|---|---|---|---|---|---|
| 1788077789 | 33.33° C | 86% | 1000.5 hPa | 0 mm | - | - | - |
| 1788077189 | 33.89° C | 86% | 1000.5 hPa | 0 mm | - | - | - |
| 1788076590 | 33.89° C | 85% | 1000.4 hPa | 0 mm | - | - | - |
| 1788075989 | 33.89° C | 84% | 1000.5 hPa | 0 mm | - | - | - |
| 1788075389 | 33.89° C | 84% | 1000.6 hPa | 0 mm | - | - | - |
| 1788074789 | 33.89° C | 84% | 1000.5 hPa | 0 mm | - | - | - |
| 1788074188 | 33.89° C | 84% | 1000.6 hPa | 0 mm | - | - | - |
| 1788073588 | 34.44° C | 83% | 1000.6 hPa | 0 mm | - | - | - |
| 1788072989 | 34.44° C | 82% | 1000.6 hPa | 0 mm | - | - | - |
| 1788072389 | 35° C | 83% | 1000.5 hPa | 0 mm | - | - | - |
| 1788071789 | 35° C | 82% | 1000.5 hPa | 0 mm | - | - | - |
| 1788071188 | 35° C | 82% | 1000.6 hPa | 0 mm | - | - | - |
| 1788070588 | 35.56° C | 81% | 1000.7 hPa | 0 mm | - | - | - |
| 1788069989 | 35.56° C | 81% | 1000.7 hPa | 0 mm | - | - | - |
| 1788069389 | 35° C | 82% | 1000.8 hPa | 0 mm | - | - | - |
| 1788068788 | 35° C | 83% | 1000.8 hPa | 0 mm | - | - | - |
| 1788067588 | 35° C | 84% | 1001.2 hPa | 0.25 mm | - | - | - |
| 1788066988 | 34.44° C | 84% | 1001.2 hPa | 0.76 mm | - | - | - |
| 1788066389 | 34.44° C | 85% | 1001 hPa | 2.29 mm | - | - | - |
| 1788065789 | 34.44° C | 84% | 1001.1 hPa | 2.54 mm | - | - | - |
| 1788065188 | 34.44° C | 84% | 1001.5 hPa | 2.54 mm | - | - | - |
| 1788064588 | 34.44° C | 86% | 1001.4 hPa | 2.54 mm | - | - | - |
| 1788063988 | 33.89° C | 86% | 1001.4 hPa | 2.29 mm | - | - | - |
| 1788063388 | 33.89° C | 86% | 1001.6 hPa | 1.52 mm | - | - | - |
| 1788062788 | 33.33° C | 85% | 1001.7 hPa | 0.25 mm | - | - | - |
* Rain latest hour (hover to see other rain measurements)
** Current wind speed in m/s (hover to see current wind gust speed)